Time,TemperatureF,DewpointF,PressureIn,WindDirection,WindDirectionDegrees,WindSpeedMPH,WindSpeedGustMPH,Humidity,HourlyPrecipIn,Conditions,Clouds,dailyrainin,SoftwareType,DateUTC
2013-01-15 00:03:00,1.0,-4.3,30.00,South,186,0.0,0.0,78,0.00,-RA,OVC,0.00,WeatherDisplay:10.37,2013-01-15 07:03:00,
2013-01-15 00:08:00,0.9,-4.4,30.00,South,186,0.0,0.0,78,0.00,-RA,OVC,0.00,WeatherDisplay:10.37,2013-01-15 07:08:00,
2013-01-15 00:13:00,0.9,-4.4,30.00,South,186,0.0,0.0,78,0.00,-RA,OVC,0.00,WeatherDisplay:10.37,2013-01-15 07:13:00,
2013-01-15 00:18:00,0.8,-4.5,30.00,South,186,0.0,0.0,78,0.00,-RA,OVC,0.00,WeatherDisplay:10.37,2013-01-15 07:18:00,
2013-01-15 00:23:00,0.7,-4.8,30.00,South,186,0.0,0.0,77,0.00,-RA,OVC,0.00,WeatherDisplay:10.37,2013-01-15 07:23:00,
2013-01-15 00:28:00,0.5,-5.0,30.00,South,186,0.0,0.0,77,0.00,-RA,OVC,0.00,WeatherDisplay:10.37,2013-01-15 07:28:00,
2013-01-15 00:33:00,0.4,-4.8,30.00,South,186,0.0,0.0,78,0.00,-RA,OVC,0.00,WeatherDisplay:10.37,2013-01-15 07:33:00,
2013-01-15 00:38:00,0.2,-5.0,30.00,South,186,0.0,0.0,78,0.00,-RA,OVC,0.00,WeatherDisplay:10.37,2013-01-15 07:38:00,
2013-01-15 00:43:00,0.1,-5.1,30.01,South,186,0.0,0.0,78,0.00,-RA,OVC,0.00,WeatherDisplay:10.37,2013-01-15 07:43:00,
2013-01-15 00:48:00,0.1,-5.1,30.01,South,186,0.0,0.0,78,0.00,-RA,OVC,0.00,WeatherDisplay:10.37,2013-01-15 07:48:00,
2013-01-15 00:53:00,0.0,-5.2,30.01,South,186,0.0,0.0,78,0.00,-RA,OVC,0.00,WeatherDisplay:10.37,2013-01-15 07:53:00,
2013-01-15 00:58:00,0.0,-5.2,30.01,South,186,0.0,0.0,78,0.00,-RA,OVC,0.00,WeatherDisplay:10.37,2013-01-15 07:58:00,
2013-01-15 01:03:00,0.0,-5.2,30.01,South,186,0.0,0.0,78,0.00,-RA,OVC,0.00,WeatherDisplay:10.37,2013-01-15 08:03:00,
2013-01-15 01:08:00,0.0,-5.2,30.01,South,186,0.0,0.0,78,0.00,-RA,OVC,0.00,WeatherDisplay:10.37,2013-01-15 08:08:00,
2013-01-15 01:13:00,-0.1,-5.3,30.01,South,186,0.0,0.0,78,0.00,-RA,OVC,0.00,WeatherDisplay:10.37,2013-01-15 08:13:00,
2013-01-15 01:18:00,-0.1,-5.3,30.01,South,186,0.0,0.0,78,0.00,-RA,OVC,0.00,WeatherDisplay:10.37,2013-01-15 08:18:00,
2013-01-15 01:23:00,-0.2,-5.2,30.01,South,186,0.0,0.0,79,0.00,-RA,OVC,0.00,WeatherDisplay:10.37,2013-01-15 08:23:00,
2013-01-15 01:28:00,-0.2,-5.2,30.01,South,186,0.0,0.0,79,0.00,-RA,OVC,0.00,WeatherDisplay:10.37,2013-01-15 08:28:00,
2013-01-15 01:33:00,-0.2,-5.2,30.02,South,186,0.0,0.0,79,0.00,-RA,OVC,0.00,WeatherDisplay:10.37,2013-01-15 08:33:00,
2013-01-15 01:38:00,-0.1,-4.8,30.02,South,186,0.0,0.0,80,0.00,-RA,OVC,0.00,WeatherDisplay:10.37,2013-01-15 08:38:00,
2013-01-15 01:43:00,-0.1,-5.1,30.02,South,186,0.0,0.0,79,0.00,-RA,OVC,0.00,WeatherDisplay:10.37,2013-01-15 08:43:00,
2013-01-15 01:48:00,-0.1,-5.1,30.02,South,186,0.0,0.0,79,0.00,-RA,OVC,0.00,WeatherDisplay:10.37,2013-01-15 08:48:00,
2013-01-15 01:53:00,-0.1,-5.1,30.02,South,186,0.0,0.0,79,0.00,-RA,OVC,0.00,WeatherDisplay:10.37,2013-01-15 08:53:00,
2013-01-15 01:58:00,-0.1,-5.1,30.02,South,186,0.0,0.0,79,0.00,-RA,OVC,0.00,WeatherDisplay:10.37,2013-01-15 08:58:00,
2013-01-15 02:03:00,-0.2,-5.2,30.02,South,186,0.0,0.0,79,0.00,-RA,OVC,0.00,WeatherDisplay:10.37,2013-01-15 09:03:00,
2013-01-15 02:08:00,-0.3,-5.3,30.02,South,186,0.0,0.0,79,0.00,-RA,OVC,0.00,WeatherDisplay:10.37,2013-01-15 09:08:00,
2013-01-15 02:13:00,-0.4,-5.4,30.02,South,186,0.0,0.0,79,0.00,-RA,OVC,0.00,WeatherDisplay:10.37,2013-01-15 09:13:00,
2013-01-15 02:18:00,-0.5,-5.5,30.02,South,186,0.0,0.0,79,0.00,-RA,OVC,0.00,WeatherDisplay:10.37,2013-01-15 09:18:00,
2013-01-15 02:23:00,-0.7,-5.7,30.02,South,186,0.0,0.0,79,0.00,-RA,OVC,0.00,WeatherDisplay:10.37,2013-01-15 09:23:00,
2013-01-15 02:28:00,-0.6,-5.3,30.02,South,186,0.0,0.0,80,0.00,-RA,OVC,0.00,WeatherDisplay:10.37,2013-01-15 09:28:00,
2013-01-15 02:33:00,-0.5,-5.2,30.02,South,186,0.0,0.0,80,0.00,-RA,OVC,0.00,WeatherDisplay:10.37,2013-01-15 09:33:00,
2013-01-15 02:38:00,-0.4,-5.1,30.02,South,186,0.0,0.0,80,0.00,-RA,OVC,0.00,WeatherDisplay:10.37,2013-01-15 09:38:00,
2013-01-15 02:43:00,-0.5,-5.5,30.02,South,186,0.0,0.0,79,0.00,-RA,OVC,0.00,WeatherDisplay:10.37,2013-01-15 09:43:00,
2013-01-15 02:48:00,-0.6,-5.6,30.02,South,186,0.0,0.0,79,0.00,-RA,OVC,0.00,WeatherDisplay:10.37,2013-01-15 09:48:00,
2013-01-15 02:53:00,-0.6,-5.6,30.02,South,186,0.0,0.0,79,0.00,-RA,OVC,0.00,WeatherDisplay:10.37,2013-01-15 09:53:00,
2013-01-15 02:58:00,-0.8,-5.7,30.02,South,186,0.0,0.0,79,0.00,-RA,OVC,0.00,WeatherDisplay:10.37,2013-01-15 09:58:00,
2013-01-15 03:03:00,-0.9,-5.8,30.02,South,186,0.0,0.0,79,0.00,-RA,OVC,0.00,WeatherDisplay:10.37,2013-01-15 10:03:00,
2013-01-15 03:08:00,-1.0,-5.9,30.02,South,186,0.0,0.0,79,0.00,-RA,OVC,0.00,WeatherDisplay:10.37,2013-01-15 10:08:00,
2013-01-15 03:13:00,-1.0,-5.9,30.02,South,186,0.0,0.0,79,0.00,-RA,OVC,0.00,WeatherDisplay:10.37,2013-01-15 10:13:00,
2013-01-15 03:18:00,-0.9,-5.6,30.02,South,186,0.0,0.0,80,0.00,-RA,OVC,0.00,WeatherDisplay:10.37,2013-01-15 10:18:00,
2013-01-15 03:23:00,-0.8,-5.5,30.02,South,186,0.0,0.0,80,0.00,-RA,OVC,0.00,WeatherDisplay:10.37,2013-01-15 10:23:00,
2013-01-15 03:28:00,-0.8,-5.7,30.02,South,185,2.3,2.3,79,0.00,-RA,OVC,0.00,WeatherDisplay:10.37,2013-01-15 10:28:00,
2013-01-15 03:33:00,-0.5,-5.2,30.02,South,185,0.0,0.0,80,0.00,-RA,OVC,0.00,WeatherDisplay:10.37,2013-01-15 10:33:00,
2013-01-15 03:38:00,-0.1,-5.1,30.02,South,184,1.0,0.0,79,0.00,-RA,OVC,0.00,WeatherDisplay:10.37,2013-01-15 10:38:00,
2013-01-15 03:43:00,0.2,-5.0,30.02,South,184,1.1,1.1,78,0.00,-RA,OVC,0.00,WeatherDisplay:10.37,2013-01-15 10:43:00,
2013-01-15 03:48:00,0.5,-5.0,30.02,South,184,0.0,0.0,77,0.00,-RA,OVC,0.00,WeatherDisplay:10.37,2013-01-15 10:48:00,
2013-01-15 03:53:00,0.6,-5.2,30.02,South,184,0.0,0.0,76,0.00,-RA,OVC,0.00,WeatherDisplay:10.37,2013-01-15 10:53:00,
2013-01-15 03:58:00,0.6,-5.5,30.02,South,184,0.0,0.0,75,0.00,-RA,OVC,0.00,WeatherDisplay:10.37,2013-01-15 10:58:00,
2013-01-15 04:03:00,0.6,-5.2,30.02,South,184,0.0,0.0,76,0.00,-RA,OVC,0.00,WeatherDisplay:10.37,2013-01-15 11:03:00,
2013-01-15 04:08:00,0.6,-5.5,30.02,South,184,0.0,0.0,75,0.00,-RA,OVC,0.00,WeatherDisplay:10.37,2013-01-15 11:08:00,
2013-01-15 04:13:00,0.4,-5.7,30.01,South,184,0.0,0.0,75,0.00,-RA,OVC,0.00,WeatherDisplay:10.37,2013-01-15 11:13:00,
2013-01-15 04:18:00,0.3,-5.8,30.01,South,184,0.0,0.0,75,0.00,-RA,OVC,0.00,WeatherDisplay:10.37,2013-01-15 11:18:00,
2013-01-15 04:23:00,0.2,-5.6,30.01,South,184,0.0,0.0,76,0.00,-RA,OVC,0.00,WeatherDisplay:10.37,2013-01-15 11:23:00,
2013-01-15 04:28:00,0.3,-5.5,30.01,South,184,0.0,0.0,76,0.00,-RA,OVC,0.00,WeatherDisplay:10.37,2013-01-15 11:28:00,
2013-01-15 04:33:00,0.4,-5.4,30.01,South,184,0.0,0.0,76,0.00,-RA,OVC,0.00,WeatherDisplay:10.37,2013-01-15 11:33:00,
2013-01-15 04:38:00,0.6,-5.2,30.01,South,184,0.0,0.0,76,0.00,-RA,OVC,0.00,WeatherDisplay:10.37,2013-01-15 11:38:00,
2013-01-15 04:43:00,0.6,-5.2,30.01,South,184,0.0,0.0,76,0.00,-RA,OVC,0.00,WeatherDisplay:10.37,2013-01-15 11:43:00,
2013-01-15 04:48:00,0.6,-5.5,30.01,South,184,2.3,2.3,75,0.00,-RA,OVC,0.00,WeatherDisplay:10.37,2013-01-15 11:48:00,
2013-01-15 04:53:00,0.8,-5.3,30.01,South,184,0.0,0.0,75,0.00,-RA,OVC,0.00,WeatherDisplay:10.37,2013-01-15 11:53:00,
2013-01-15 04:58:00,1.2,-4.9,30.01,South,184,2.3,2.3,75,0.00,-RA,OVC,0.00,WeatherDisplay:10.37,2013-01-15 11:58:00,
2013-01-15 05:03:00,1.6,-5.1,30.01,South,184,0.0,0.0,73,0.00,-RA,OVC,0.00,WeatherDisplay:10.37,2013-01-15 12:03:00,
2013-01-15 05:08:00,1.7,-5.2,30.01,South,184,0.0,0.0,72,0.00,-RA,OVC,0.00,WeatherDisplay:10.37,2013-01-15 12:08:00,
2013-01-15 05:13:00,1.7,-5.0,30.01,South,183,2.3,2.3,73,0.00,-RA,OVC,0.00,WeatherDisplay:10.37,2013-01-15 12:13:00,
2013-01-15 05:18:00,1.8,-5.2,30.01,South,183,0.0,0.0,72,0.00,-RA,OVC,0.00,WeatherDisplay:10.37,2013-01-15 12:18:00,
2013-01-15 05:23:00,2.0,-5.0,30.01,South,183,0.0,0.0,72,0.00,-RA,OVC,0.00,WeatherDisplay:10.37,2013-01-15 12:23:00,
2013-01-15 05:28:00,2.0,-5.2,30.01,South,183,0.0,0.0,71,0.00,-RA,OVC,0.00,WeatherDisplay:10.37,2013-01-15 12:28:00,
2013-01-15 05:33:00,2.0,-5.2,30.01,South,183,0.0,0.0,71,0.00,-RA,OVC,0.00,WeatherDisplay:10.37,2013-01-15 12:33:00,
2013-01-15 05:38:00,2.0,-5.2,30.01,South,183,3.5,3.5,71,0.00,-RA,OVC,0.00,WeatherDisplay:10.37,2013-01-15 12:38:00,
2013-01-15 05:43:00,1.9,-5.1,30.01,South,183,1.1,1.1,72,0.00,-RA,OVC,0.00,WeatherDisplay:10.37,2013-01-15 12:43:00,
2013-01-15 05:48:00,2.2,-4.8,30.01,SSE,161,3.5,3.5,72,0.00,-RA,OVC,0.00,WeatherDisplay:10.37,2013-01-15 12:48:00,
2013-01-15 05:53:00,2.4,-4.3,30.01,SSE,161,2.3,0.0,73,0.00,-RA,OVC,0.00,WeatherDisplay:10.37,2013-01-15 12:53:00,
2013-01-15 05:58:00,2.6,-4.4,30.01,SSE,161,0.0,0.0,72,0.00,-RA,OVC,0.00,WeatherDisplay:10.37,2013-01-15 12:58:00,
2013-01-15 06:03:00,2.6,-4.4,30.01,SSE,159,2.3,2.3,72,0.00,-RA,OVC,0.00,WeatherDisplay:10.37,2013-01-15 13:03:00,
2013-01-15 06:08:00,2.6,-4.4,30.01,SSE,159,0.0,0.0,72,0.00,-RA,OVC,0.00,WeatherDisplay:10.37,2013-01-15 13:08:00,
2013-01-15 06:13:00,2.5,-4.5,30.01,SSE,159,0.0,0.0,72,0.00,-RA,OVC,0.00,WeatherDisplay:10.37,2013-01-15 13:13:00,
2013-01-15 06:18:00,2.4,-4.9,30.01,SSE,159,1.1,0.0,71,0.00,-RA,OVC,0.00,WeatherDisplay:10.37,2013-01-15 13:18:00,
2013-01-15 06:23:00,2.3,-5.0,30.01,SSE,159,1.1,1.1,71,0.00,-RA,OVC,0.00,WeatherDisplay:10.37,2013-01-15 13:23:00,
2013-01-15 06:28:00,2.2,-4.8,30.01,SSE,159,1.1,1.1,72,0.00,-RA,OVC,0.00,WeatherDisplay:10.37,2013-01-15 13:28:00,
2013-01-15 06:33:00,2.2,-4.8,30.01,SSE,159,0.0,0.0,72,0.00,-RA,OVC,0.00,WeatherDisplay:10.37,2013-01-15 13:33:00,
2013-01-15 06:38:00,2.3,-4.7,30.01,SSE,159,2.3,0.0,72,0.00,-RA,OVC,0.00,WeatherDisplay:10.37,2013-01-15 13:38:00,
2013-01-15 06:43:00,2.6,-4.4,30.01,SSE,159,2.3,2.3,72,0.00,-RA,OVC,0.00,WeatherDisplay:10.37,2013-01-15 13:43:00,
2013-01-15 06:48:00,3.0,-4.0,30.01,SSE,157,2.3,2.3,72,0.00,-RA,OVC,0.00,WeatherDisplay:10.37,2013-01-15 13:48:00,
2013-01-15 06:53:00,3.3,-4.0,30.01,SSE,149,2.3,2.3,71,0.00,-RA,OVC,0.00,WeatherDisplay:10.37,2013-01-15 13:53:00,
2013-01-15 06:58:00,3.7,-3.9,30.01,SSE,149,1.1,0.0,70,0.00,-RA,OVC,0.00,WeatherDisplay:10.37,2013-01-15 13:58:00,
2013-01-15 07:03:00,4.0,-3.6,30.01,SSE,148,2.3,0.0,70,0.00,-RA,OVC,0.00,WeatherDisplay:10.37,2013-01-15 14:03:00,
2013-01-15 07:08:00,4.2,-3.4,30.01,SSE,148,1.1,1.1,70,0.00,-RA,OVC,0.00,WeatherDisplay:10.37,2013-01-15 14:08:00,
2013-01-15 07:13:00,4.5,-3.4,30.01,SSE,148,2.0,2.0,69,0.00,-RA,OVC,0.00,WeatherDisplay:10.37,2013-01-15 14:13:00,
2013-01-15 07:18:00,4.8,-3.1,30.01,SSE,148,1.1,1.1,69,0.00,-RA,OVC,0.00,WeatherDisplay:10.37,2013-01-15 14:18:00,
2013-01-15 07:23:00,5.1,-3.2,30.01,SSE,148,2.3,2.3,68,0.00,-RA,OVC,0.00,WeatherDisplay:10.37,2013-01-15 14:23:00,
2013-01-15 07:28:00,5.5,-2.8,30.01,SSE,148,1.1,1.1,68,0.00,-RA,OVC,0.00,WeatherDisplay:10.37,2013-01-15 14:28:00,
2013-01-15 07:33:00,5.8,-2.8,30.01,SSE,148,1.1,1.1,67,0.00,-RA,OVC,0.00,WeatherDisplay:10.37,2013-01-15 14:33:00,
2013-01-15 07:38:00,6.0,-2.6,30.03,SSE,148,1.1,0.0,67,0.00,-RA,OVC,0.00,WeatherDisplay:10.37,2013-01-15 14:38:00,
2013-01-15 07:43:00,6.3,-2.3,30.03,SSE,148,2.3,2.3,67,0.00,-RA,OVC,0.00,WeatherDisplay:10.37,2013-01-15 14:43:00,
2013-01-15 07:48:00,6.5,-2.1,30.03,SSE,147,2.3,2.3,67,0.00,-RA,OVC,0.00,WeatherDisplay:10.37,2013-01-15 14:48:00,
2013-01-15 07:53:00,6.7,-2.3,30.03,SE,132,3.5,3.5,66,0.00,-RA,OVC,0.00,WeatherDisplay:10.37,2013-01-15 14:53:00,
2013-01-15 07:58:00,7.1,-2.2,30.03,SE,132,2.3,2.3,65,0.00,-RA,OVC,0.00,WeatherDisplay:10.37,2013-01-15 14:58:00,
2013-01-15 08:03:00,7.3,-2.0,30.03,SE,128,2.3,2.3,65,0.00,-RA,OVC,0.00,WeatherDisplay:10.37,2013-01-15 15:03:00,
2013-01-15 08:08:00,7.6,-1.7,30.03,East,94,3.5,3.5,65,0.00,-RA,OVC,0.00,WeatherDisplay:10.37,2013-01-15 15:08:00,
2013-01-15 08:13:00,8.0,-1.7,30.03,East,94,3.5,3.5,64,0.00,-RA,OVC,0.00,WeatherDisplay:10.37,2013-01-15 15:13:00,
2013-01-15 08:18:00,8.3,-1.1,30.03,East,94,1.1,1.1,65,0.00,-RA,OVC,0.00,WeatherDisplay:10.37,2013-01-15 15:18:00,
2013-01-15 08:23:00,8.7,-1.0,30.03,East,94,3.5,3.5,64,0.00,-RA,OVC,0.00,WeatherDisplay:10.37,2013-01-15 15:23:00,
2013-01-15 08:28:00,9.0,-0.7,30.03,East,94,3.5,3.5,64,0.00,-RA,OVC,0.00,WeatherDisplay:10.37,2013-01-15 15:28:00,
2013-01-15 08:33:00,9.6,-0.1,30.04,East,91,2.3,2.3,64,0.00,-RA,OVC,0.00,WeatherDisplay:10.37,2013-01-15 15:33:00,
2013-01-15 08:38:00,9.9,-0.5,30.04,East,91,3.5,3.5,62,0.00,-RA,OVC,0.00,WeatherDisplay:10.37,2013-01-15 15:38:00,
2013-01-15 08:43:00,10.4,-0.1,30.04,East,91,3.5,3.5,62,0.00,-RA,OVC,0.00,WeatherDisplay:10.37,2013-01-15 15:43:00,
2013-01-15 08:48:00,10.7,-0.1,30.04,East,84,3.5,3.5,61,0.00,-RA,OVC,0.00,WeatherDisplay:10.37,2013-01-15 15:48:00,
2013-01-15 08:53:00,11.1,-0.1,30.04,NE,41,3.5,3.5,60,0.00,-RA,OVC,0.00,WeatherDisplay:10.37,2013-01-15 15:53:00,
2013-01-15 08:58:00,11.4,0.2,30.04,NE,41,3.5,3.5,60,0.00,-RA,OVC,0.00,WeatherDisplay:10.37,2013-01-15 15:58:00,
2013-01-15 09:03:00,11.7,-0.3,30.04,NE,41,3.5,3.5,58,0.00,-RA,OVC,0.00,WeatherDisplay:10.37,2013-01-15 16:03:00,
2013-01-15 09:08:00,12.0,0.0,30.04,NE,37,4.6,4.6,58,0.00,-RA,OVC,0.00,WeatherDisplay:10.37,2013-01-15 16:08:00,
2013-01-15 09:13:00,12.3,0.7,30.04,NE,37,3.5,3.5,59,0.00,-RA,OVC,0.00,WeatherDisplay:10.37,2013-01-15 16:13:00,
2013-01-15 09:18:00,12.6,0.6,30.04,NE,37,1.1,1.1,58,0.00,-RA,OVC,0.00,WeatherDisplay:10.37,2013-01-15 16:18:00,
2013-01-15 09:23:00,12.9,0.9,30.04,NE,37,1.1,1.1,58,0.00,-RA,OVC,0.00,WeatherDisplay:10.37,2013-01-15 16:23:00,
2013-01-15 09:28:00,13.6,1.9,30.04,NE,38,3.5,3.5,59,0.00,-RA,OVC,0.00,WeatherDisplay:10.37,2013-01-15 16:28:00,
2013-01-15 09:33:00,14.6,3.2,30.04,NE,38,2.3,2.3,60,0.00,-RA,OVC,0.00,WeatherDisplay:10.37,2013-01-15 16:33:00,
2013-01-15 09:38:00,15.8,2.5,30.04,NE,37,4.6,4.6,55,0.00,-RA,OVC,0.00,WeatherDisplay:10.37,2013-01-15 16:38:00,
2013-01-15 09:43:00,16.8,2.2,30.05,NE,37,3.5,3.5,52,0.00,-RA,OVC,0.00,WeatherDisplay:10.37,2013-01-15 16:43:00,
2013-01-15 09:48:00,17.5,2.0,30.05,NNE,26,6.9,6.9,50,0.00,-RA,OVC,0.00,WeatherDisplay:10.37,2013-01-15 16:48:00,
2013-01-15 09:53:00,17.9,1.9,30.05,NNE,16,4.0,4.0,49,0.00,-RA,OVC,0.00,WeatherDisplay:10.37,2013-01-15 16:53:00,
2013-01-15 09:58:00,18.0,2.5,30.05,NNE,18,3.5,3.5,50,0.00,-RA,OVC,0.00,WeatherDisplay:10.37,2013-01-15 16:58:00,
2013-01-15 10:03:00,18.2,2.2,30.05,NE,49,3.5,3.5,49,0.00,-RA,OVC,0.00,WeatherDisplay:10.37,2013-01-15 17:03:00,
2013-01-15 10:08:00,18.5,2.5,30.05,NE,47,3.5,3.5,49,0.00,-RA,OVC,0.00,WeatherDisplay:10.37,2013-01-15 17:08:00,
2013-01-15 10:13:00,18.6,2.1,30.05,NE,47,3.0,3.0,48,0.00,-RA,OVC,0.00,WeatherDisplay:10.37,2013-01-15 17:13:00,
2013-01-15 10:18:00,18.8,1.9,30.05,NE,47,3.5,3.5,47,0.00,-RA,OVC,0.00,WeatherDisplay:10.37,2013-01-15 17:18:00,
2013-01-15 10:23:00,19.1,2.1,30.05,NE,47,3.5,3.5,47,0.00,-RA,OVC,0.00,WeatherDisplay:10.37,2013-01-15 17:23:00,
2013-01-15 10:28:00,19.4,2.0,30.05,NE,47,0.0,0.6,46,0.00,-RA,OVC,0.00,WeatherDisplay:10.37,2013-01-15 17:28:00,
2013-01-15 10:33:00,19.5,1.6,30.05,NE,47,4.0,4.0,45,0.00,-RA,OVC,0.00,WeatherDisplay:10.37,2013-01-15 17:33:00,
2013-01-15 10:38:00,19.8,1.8,30.05,NE,47,3.5,3.5,45,0.00,-RA,OVC,0.00,WeatherDisplay:10.37,2013-01-15 17:38:00,
2013-01-15 10:43:00,20.1,2.1,30.05,NE,47,3.5,3.5,45,0.00,-RA,OVC,0.00,WeatherDisplay:10.37,2013-01-15 17:43:00,
2013-01-15 10:48:00,20.4,1.9,30.05,NNE,27,6.0,6.0,44,0.00,-RA,OVC,0.00,WeatherDisplay:10.37,2013-01-15 17:48:00,
2013-01-15 10:53:00,20.8,2.3,30.05,NE,55,5.8,5.8,44,0.00,-RA,OVC,0.00,WeatherDisplay:10.37,2013-01-15 17:53:00,
2013-01-15 10:58:00,21.2,2.6,30.05,NE,53,3.5,3.5,44,0.00,-RA,OVC,0.00,WeatherDisplay:10.37,2013-01-15 17:58:00,
2013-01-15 11:03:00,21.5,2.9,30.05,NE,53,3.5,3.5,44,0.00,-RA,OVC,0.00,WeatherDisplay:10.37,2013-01-15 18:03:00,
2013-01-15 11:08:00,22.0,3.4,30.05,NE,53,3.5,3.5,44,0.00,-RA,OVC,0.00,WeatherDisplay:10.37,2013-01-15 18:08:00,
2013-01-15 11:13:00,22.5,3.3,30.03,NE,53,3.5,3.5,43,0.00,-RA,OVC,0.00,WeatherDisplay:10.37,2013-01-15 18:13:00,
2013-01-15 11:18:00,22.9,3.2,30.03,NE,46,3.5,3.5,42,0.00,-RA,OVC,0.00,WeatherDisplay:10.37,2013-01-15 18:18:00,
2013-01-15 11:23:00,23.2,4.0,30.03,NE,46,3.5,3.5,43,0.00,-RA,OVC,0.00,WeatherDisplay:10.37,2013-01-15 18:23:00,
2013-01-15 11:28:00,23.5,4.2,30.03,NE,42,4.6,4.6,43,0.00,-RA,OVC,0.00,WeatherDisplay:10.37,2013-01-15 18:28:00,
2013-01-15 11:33:00,23.8,4.0,30.03,NE,40,4.6,4.6,42,0.00,-RA,OVC,0.00,WeatherDisplay:10.37,2013-01-15 18:33:00,
2013-01-15 11:38:00,24.0,4.2,30.03,NE,39,3.5,3.5,42,0.00,-RA,OVC,0.00,WeatherDisplay:10.37,2013-01-15 18:38:00,
2013-01-15 11:43:00,24.3,4.5,30.03,NE,39,3.5,3.5,42,0.00,-RA,OVC,0.00,WeatherDisplay:10.37,2013-01-15 18:43:00,
2013-01-15 11:48:00,24.8,4.9,30.03,NE,39,2.3,2.3,42,0.00,-RA,OVC,0.00,WeatherDisplay:10.37,2013-01-15 18:48:00,
2013-01-15 11:53:00,25.2,5.3,30.03,NE,39,3.5,3.5,42,0.00,-RA,OVC,0.00,WeatherDisplay:10.37,2013-01-15 18:53:00,
2013-01-15 11:58:00,25.6,5.1,30.03,NE,39,4.6,4.6,41,0.00,-RA,OVC,0.00,WeatherDisplay:10.37,2013-01-15 18:58:00,
2013-01-15 12:03:00,25.8,4.8,30.03,NE,38,4.6,4.6,40,0.00,-RA,OVC,0.00,WeatherDisplay:10.37,2013-01-15 19:03:00,
2013-01-15 12:08:00,26.0,4.9,30.03,NE,34,7.0,7.0,40,0.00,-RA,OVC,0.00,WeatherDisplay:10.37,2013-01-15 19:08:00,
2013-01-15 12:13:00,26.1,5.0,30.03,North,11,6.9,6.9,40,0.00,-RA,OVC,0.00,WeatherDisplay:10.37,2013-01-15 19:13:00,
2013-01-15 12:18:00,26.1,5.0,30.03,NNE,19,5.8,5.8,40,0.00,-RA,OVC,0.00,WeatherDisplay:10.37,2013-01-15 19:18:00,
2013-01-15 12:23:00,26.1,5.0,30.03,NE,36,4.6,4.6,40,0.00,-RA,OVC,0.00,WeatherDisplay:10.37,2013-01-15 19:23:00,
2013-01-15 12:28:00,26.3,5.2,30.03,NE,34,4.6,4.6,40,0.00,-RA,OVC,0.00,WeatherDisplay:10.37,2013-01-15 19:28:00,
2013-01-15 12:33:00,26.5,4.8,30.03,NE,43,4.6,4.6,39,0.00,-RA,OVC,0.00,WeatherDisplay:10.37,2013-01-15 19:33:00,
2013-01-15 12:38:00,26.9,5.2,30.03,NE,43,3.5,3.5,39,0.00,-RA,OVC,0.00,WeatherDisplay:10.37,2013-01-15 19:38:00,
2013-01-15 12:43:00,27.4,4.5,30.03,NNE,14,5.8,5.8,37,0.00,-RA,OVC,0.00,WeatherDisplay:10.37,2013-01-15 19:43:00,
2013-01-15 12:48:00,27.7,4.8,30.03,NNE,19,3.5,3.5,37,0.00,-RA,OVC,0.00,WeatherDisplay:10.37,2013-01-15 19:48:00,
2013-01-15 12:53:00,28.1,3.9,30.03,NE,36,3.5,3.5,35,0.00,-RA,OVC,0.00,WeatherDisplay:10.37,2013-01-15 19:53:00,
2013-01-15 12:58:00,28.5,3.6,30.03,NE,35,3.5,3.5,34,0.00,-RA,OVC,0.00,WeatherDisplay:10.37,2013-01-15 19:58:00,
2013-01-15 13:03:00,28.9,4.0,30.03,NE,36,5.0,5.0,34,0.00,-RA,OVC,0.00,WeatherDisplay:10.37,2013-01-15 20:03:00,
2013-01-15 13:08:00,29.1,4.2,30.03,ENE,61,4.6,4.6,34,0.00,-RA,OVC,0.00,WeatherDisplay:10.37,2013-01-15 20:08:00,
2013-01-15 13:13:00,29.3,4.4,30.03,NNE,13,4.0,4.0,34,0.00,-RA,OVC,0.00,WeatherDisplay:10.37,2013-01-15 20:13:00,
2013-01-15 13:18:00,29.5,4.5,30.03,North,360,4.6,4.6,34,0.00,-RA,OVC,0.00,WeatherDisplay:10.37,2013-01-15 20:18:00,
2013-01-15 13:23:00,29.5,4.5,30.03,NNE,15,4.6,4.6,34,0.00,-RA,OVC,0.00,WeatherDisplay:10.37,2013-01-15 20:23:00,
2013-01-15 13:28:00,29.5,4.5,30.03,NNE,22,7.0,7.0,34,0.00,-RA,OVC,0.00,WeatherDisplay:10.37,2013-01-15 20:28:00,
2013-01-15 13:33:00,29.4,4.4,30.03,NNE,18,3.5,3.5,34,0.00,-RA,OVC,0.00,WeatherDisplay:10.37,2013-01-15 20:33:00,
2013-01-15 13:38:00,29.7,5.3,30.03,NNE,18,3.5,3.5,35,0.00,-RA,OVC,0.00,WeatherDisplay:10.37,2013-01-15 20:38:00,
2013-01-15 13:43:00,29.8,5.4,30.03,NNE,18,3.5,3.5,35,0.00,-RA,OVC,0.00,WeatherDisplay:10.37,2013-01-15 20:43:00,
2013-01-15 13:48:00,29.9,4.9,30.03,NNE,17,3.5,3.5,34,0.00,-RA,OVC,0.00,WeatherDisplay:10.37,2013-01-15 20:48:00,
2013-01-15 13:53:00,30.1,5.7,30.03,NNE,17,3.5,3.5,35,0.00,-RA,OVC,0.00,WeatherDisplay:10.37,2013-01-15 20:53:00,
2013-01-15 13:58:00,30.3,5.9,30.03,NNE,26,3.5,3.5,35,0.00,-RA,OVC,0.00,WeatherDisplay:10.37,2013-01-15 20:58:00,
2013-01-15 14:03:00,30.3,5.2,30.03,NNW,348,3.5,3.5,34,0.00,-RA,OVC,0.00,WeatherDisplay:10.37,2013-01-15 21:03:00,
2013-01-15 14:08:00,30.3,5.9,30.03,NNE,13,3.5,3.5,35,0.00,-RA,OVC,0.00,WeatherDisplay:10.37,2013-01-15 21:08:00,
2013-01-15 14:13:00,30.4,5.3,30.02,NNE,26,1.1,0.0,34,0.00,-RA,OVC,0.00,WeatherDisplay:10.37,2013-01-15 21:13:00,
2013-01-15 14:18:00,30.5,6.1,30.02,NNE,28,3.5,3.5,35,0.00,-RA,OVC,0.00,WeatherDisplay:10.37,2013-01-15 21:18:00,
2013-01-15 14:23:00,30.5,6.1,30.02,NNE,28,3.5,3.5,35,0.00,-RA,OVC,0.00,WeatherDisplay:10.37,2013-01-15 21:23:00,
2013-01-15 14:28:00,30.5,6.1,30.02,NNE,28,3.5,3.5,35,0.00,-RA,OVC,0.00,WeatherDisplay:10.37,2013-01-15 21:28:00,
2013-01-15 14:33:00,30.5,6.1,30.02,NNE,27,1.1,1.1,35,0.00,-RA,OVC,0.00,WeatherDisplay:10.37,2013-01-15 21:33:00,
2013-01-15 14:38:00,30.5,6.1,30.02,North,355,3.5,3.5,35,0.00,-RA,OVC,0.00,WeatherDisplay:10.37,2013-01-15 21:38:00,
2013-01-15 14:43:00,30.5,6.1,30.02,North,9,5.8,5.8,35,0.00,-RA,OVC,0.00,WeatherDisplay:10.37,2013-01-15 21:43:00,
2013-01-15 14:48:00,30.5,6.1,30.02,NNE,15,3.5,3.5,35,0.00,-RA,OVC,0.00,WeatherDisplay:10.37,2013-01-15 21:48:00,
2013-01-15 14:53:00,30.6,6.8,30.02,NNE,17,4.6,4.6,36,0.00,-RA,OVC,0.00,WeatherDisplay:10.37,2013-01-15 21:53:00,
2013-01-15 14:58:00,30.7,6.9,30.02,ENE,63,9.2,9.2,36,0.00,-RA,OVC,0.00,WeatherDisplay:10.37,2013-01-15 21:58:00,
2013-01-15 15:03:00,30.8,6.9,30.03,NE,36,5.0,5.0,36,0.00,-RA,OVC,0.00,WeatherDisplay:10.37,2013-01-15 22:03:00,
2013-01-15 15:08:00,30.8,6.9,30.03,NNE,32,3.5,3.5,36,0.00,-RA,OVC,0.00,WeatherDisplay:10.37,2013-01-15 22:08:00,
2013-01-15 15:13:00,30.9,7.0,30.03,North,11,5.8,5.8,36,0.00,-RA,OVC,0.00,WeatherDisplay:10.37,2013-01-15 22:13:00,
2013-01-15 15:18:00,30.8,6.9,30.03,North,9,9.2,9.2,36,0.00,-RA,OVC,0.00,WeatherDisplay:10.37,2013-01-15 22:18:00,
2013-01-15 15:23:00,30.8,6.9,30.03,North,360,6.9,6.9,36,0.00,-RA,OVC,0.00,WeatherDisplay:10.37,2013-01-15 22:23:00,
2013-01-15 15:28:00,30.8,6.9,30.03,NNE,32,8.0,8.0,36,0.00,-RA,OVC,0.00,WeatherDisplay:10.37,2013-01-15 22:28:00,
2013-01-15 15:33:00,30.9,7.0,30.03,NNE,20,4.6,4.6,36,0.00,-RA,OVC,0.00,WeatherDisplay:10.37,2013-01-15 22:33:00,
2013-01-15 15:38:00,31.0,7.1,30.03,NNE,17,5.8,5.8,36,0.00,-RA,OVC,0.00,WeatherDisplay:10.37,2013-01-15 22:38:00,
2013-01-15 15:43:00,31.1,7.2,30.03,NNE,15,5.8,5.8,36,0.00,-RA,OVC,0.00,WeatherDisplay:10.37,2013-01-15 22:43:00,
2013-01-15 15:48:00,31.2,7.3,30.03,NNE,15,3.5,3.5,36,0.00,-RA,OVC,0.00,WeatherDisplay:10.37,2013-01-15 22:48:00,
2013-01-15 15:53:00,31.2,7.3,30.03,NNE,13,5.8,5.8,36,0.00,-RA,OVC,0.00,WeatherDisplay:10.37,2013-01-15 22:53:00,
2013-01-15 15:58:00,31.2,7.3,30.03,NNE,13,3.5,3.5,36,0.00,-RA,OVC,0.00,WeatherDisplay:10.37,2013-01-15 22:58:00,
2013-01-15 16:03:00,31.2,7.3,30.03,NNE,33,4.6,4.6,36,0.00,-RA,OVC,0.00,WeatherDisplay:10.37,2013-01-15 23:03:00,
2013-01-15 16:08:00,31.2,6.7,30.03,North,9,4.6,4.7,35,0.00,-RA,OVC,0.00,WeatherDisplay:10.37,2013-01-15 23:08:00,
2013-01-15 16:13:00,31.2,6.7,30.03,North,10,4.6,4.6,35,0.00,-RA,OVC,0.00,WeatherDisplay:10.37,2013-01-15 23:13:00,
2013-01-15 16:18:00,31.2,6.7,30.03,NNE,20,10.4,10.4,35,0.00,-RA,OVC,0.00,WeatherDisplay:10.37,2013-01-15 23:18:00,
2013-01-15 16:23:00,31.2,6.7,30.03,NNE,24,6.9,6.9,35,0.00,-RA,OVC,0.00,WeatherDisplay:10.37,2013-01-15 23:23:00,
2013-01-15 16:28:00,31.2,6.7,30.03,NNE,19,3.5,3.5,35,0.00,-RA,OVC,0.00,WeatherDisplay:10.37,2013-01-15 23:28:00,
2013-01-15 16:33:00,31.2,6.7,30.03,NNE,19,3.5,3.5,35,0.00,-RA,OVC,0.00,WeatherDisplay:10.37,2013-01-15 23:33:00,
2013-01-15 16:38:00,31.1,6.6,30.03,NNE,21,6.9,6.9,35,0.00,-RA,OVC,0.00,WeatherDisplay:10.37,2013-01-15 23:38:00,
2013-01-15 16:43:00,31.1,7.2,30.04,NNE,20,3.5,3.5,36,0.00,-RA,OVC,0.00,WeatherDisplay:10.37,2013-01-15 23:43:00,
2013-01-15 16:48:00,31.1,7.2,30.04,NNE,12,3.5,3.5,36,0.00,-RA,OVC,0.00,WeatherDisplay:10.37,2013-01-15 23:48:00,
2013-01-15 16:53:00,31.0,7.7,30.04,North,9,2.3,2.3,37,0.00,-RA,OVC,0.00,WeatherDisplay:10.37,2013-01-15 23:53:00,
2013-01-15 16:58:00,31.0,7.7,30.04,North,10,3.5,3.5,37,0.00,-RA,OVC,0.00,WeatherDisplay:10.37,2013-01-15 23:58:00,
2013-01-15 17:03:00,30.9,8.2,30.04,North,10,3.5,3.5,38,0.00,-RA,OVC,0.00,WeatherDisplay:10.37,2013-01-16 00:03:00,
2013-01-15 17:08:00,30.9,8.2,30.04,North,10,1.1,1.1,38,0.00,-RA,OVC,0.00,WeatherDisplay:10.37,2013-01-16 00:08:00,
2013-01-15 17:13:00,30.8,8.1,30.04,North,10,1.1,1.1,38,0.00,-RA,OVC,0.00,WeatherDisplay:10.37,2013-01-16 00:13:00,
2013-01-15 17:18:00,30.8,8.7,30.04,North,10,2.3,2.3,39,0.00,-RA,OVC,0.00,WeatherDisplay:10.37,2013-01-16 00:18:00,
2013-01-15 17:23:00,30.7,8.6,30.04,North,11,5.0,5.0,39,0.00,-RA,OVC,0.00,WeatherDisplay:10.37,2013-01-16 00:23:00,
2013-01-15 17:28:00,30.7,9.2,30.04,NNE,26,3.5,3.5,40,0.00,-RA,OVC,0.00,WeatherDisplay:10.37,2013-01-16 00:28:00,
2013-01-15 17:33:00,30.7,9.2,30.04,NNE,33,4.6,4.6,40,0.00,-RA,OVC,0.00,WeatherDisplay:10.37,2013-01-16 00:33:00,
2013-01-15 17:38:00,30.6,9.1,30.04,NNE,33,3.5,3.5,40,0.00,-RA,OVC,0.00,WeatherDisplay:10.37,2013-01-16 00:38:00,
2013-01-15 17:43:00,30.6,9.1,30.04,NE,40,3.5,3.5,40,0.00,-RA,OVC,0.00,WeatherDisplay:10.37,2013-01-16 00:43:00,
2013-01-15 17:48:00,30.6,9.7,30.04,NE,41,1.1,1.1,41,0.00,-RA,OVC,0.00,WeatherDisplay:10.37,2013-01-16 00:48:00,
2013-01-15 17:53:00,30.6,9.7,30.04,NE,41,2.3,2.3,41,0.00,-RA,OVC,0.00,WeatherDisplay:10.37,2013-01-16 00:53:00,
2013-01-15 17:58:00,30.5,9.6,30.04,NE,41,2.3,2.3,41,0.00,-RA,OVC,0.00,WeatherDisplay:10.37,2013-01-16 00:58:00,
2013-01-15 18:03:00,30.3,9.4,30.04,NE,41,2.3,2.3,41,0.00,-RA,OVC,0.00,WeatherDisplay:10.37,2013-01-16 01:03:00,
2013-01-15 18:08:00,30.2,9.8,30.04,NE,41,2.3,2.3,42,0.00,-RA,OVC,0.00,WeatherDisplay:10.37,2013-01-16 01:08:00,
2013-01-15 18:13:00,30.2,9.8,30.04,NE,41,2.3,0.0,42,0.00,-RA,OVC,0.00,WeatherDisplay:10.37,2013-01-16 01:13:00,
2013-01-15 18:18:00,30.1,9.7,30.04,NE,41,3.5,3.5,42,0.00,-RA,OVC,0.00,WeatherDisplay:10.37,2013-01-16 01:18:00,
2013-01-15 18:23:00,30.0,9.6,30.04,NE,41,1.1,0.0,42,0.00,-RA,OVC,0.00,WeatherDisplay:10.37,2013-01-16 01:23:00,
2013-01-15 18:28:00,29.9,9.6,30.04,NE,41,1.1,0.0,42,0.00,-RA,OVC,0.00,WeatherDisplay:10.37,2013-01-16 01:28:00,
2013-01-15 18:33:00,29.9,9.6,30.04,NE,41,0.0,0.0,42,0.00,-RA,OVC,0.00,WeatherDisplay:10.37,2013-01-16 01:33:00,
2013-01-15 18:38:00,29.9,9.6,30.04,NE,41,0.0,0.0,42,0.00,-RA,OVC,0.00,WeatherDisplay:10.37,2013-01-16 01:38:00,
2013-01-15 18:43:00,29.8,10.0,30.04,NE,41,0.0,0.0,43,0.00,-RA,OVC,0.00,WeatherDisplay:10.37,2013-01-16 01:43:00,
2013-01-15 18:48:00,29.8,10.0,30.04,NE,41,1.1,0.0,43,0.00,-RA,OVC,0.00,WeatherDisplay:10.37,2013-01-16 01:48:00,
2013-01-15 18:53:00,29.9,9.6,30.04,NE,41,0.0,0.0,42,0.00,-RA,OVC,0.00,WeatherDisplay:10.37,2013-01-16 01:53:00,
2013-01-15 18:58:00,29.8,10.0,30.04,NE,41,0.0,0.0,43,0.00,-RA,OVC,0.00,WeatherDisplay:10.37,2013-01-16 01:58:00,
2013-01-15 19:03:00,29.8,10.0,30.04,NE,41,0.0,0.0,43,0.00,-RA,OVC,0.00,WeatherDisplay:10.37,2013-01-16 02:03:00,
2013-01-15 19:08:00,29.7,9.9,30.04,NE,41,0.0,0.0,43,0.00,-RA,OVC,0.00,WeatherDisplay:10.37,2013-01-16 02:08:00,
2013-01-15 19:13:00,29.8,10.0,30.04,NE,41,0.0,0.0,43,0.00,-RA,OVC,0.00,WeatherDisplay:10.37,2013-01-16 02:13:00,
2013-01-15 19:18:00,29.8,10.0,30.04,NE,41,0.0,0.0,43,0.00,-RA,OVC,0.00,WeatherDisplay:10.37,2013-01-16 02:18:00,
2013-01-15 19:23:00,29.9,10.1,30.04,NE,41,0.0,0.0,43,0.00,-RA,OVC,0.00,WeatherDisplay:10.37,2013-01-16 02:23:00,
2013-01-15 19:28:00,29.9,10.1,30.04,NE,41,0.0,0.0,43,0.00,-RA,OVC,0.00,WeatherDisplay:10.37,2013-01-16 02:28:00,
2013-01-15 19:33:00,30.0,10.2,30.04,NE,41,0.0,0.0,43,0.00,-RA,OVC,0.00,WeatherDisplay:10.37,2013-01-16 02:33:00,
2013-01-15 19:38:00,29.9,10.1,30.04,NE,41,0.0,0.0,43,0.00,-RA,OVC,0.00,WeatherDisplay:10.37,2013-01-16 02:38:00,
2013-01-15 19:43:00,30.0,10.2,30.06,NE,41,0.0,0.0,43,0.00,-RA,OVC,0.00,WeatherDisplay:10.37,2013-01-16 02:43:00,
2013-01-15 19:48:00,30.0,10.2,30.06,NE,41,0.0,0.0,43,0.00,-RA,OVC,0.00,WeatherDisplay:10.37,2013-01-16 02:48:00,
2013-01-15 19:53:00,29.9,10.1,30.06,NE,41,0.0,0.0,43,0.00,-RA,OVC,0.00,WeatherDisplay:10.37,2013-01-16 02:53:00,
2013-01-15 19:58:00,29.9,10.6,30.06,NE,41,2.3,2.3,44,0.00,-RA,OVC,0.00,WeatherDisplay:10.37,2013-01-16 02:58:00,
2013-01-15 20:03:00,30.0,10.2,30.06,NE,41,0.0,0.0,43,0.00,-RA,OVC,0.00,WeatherDisplay:10.37,2013-01-16 03:03:00,
2013-01-15 20:08:00,30.0,10.7,30.06,NE,41,0.0,0.0,44,0.00,-RA,OVC,0.00,WeatherDisplay:10.37,2013-01-16 03:08:00,
2013-01-15 20:13:00,30.1,10.3,30.06,NE,41,0.0,0.0,43,0.00,-RA,OVC,0.00,WeatherDisplay:10.37,2013-01-16 03:13:00,
2013-01-15 20:18:00,30.1,10.3,30.06,NE,41,0.0,0.0,43,0.00,-RA,OVC,0.00,WeatherDisplay:10.37,2013-01-16 03:18:00,
2013-01-15 20:23:00,30.2,10.4,30.06,NE,41,0.0,0.6,43,0.00,-RA,OVC,0.00,WeatherDisplay:10.37,2013-01-16 03:23:00,
2013-01-15 20:28:00,30.3,10.4,30.06,NE,41,2.3,2.3,43,0.00,-RA,OVC,0.00,WeatherDisplay:10.37,2013-01-16 03:28:00,
2013-01-15 20:33:00,30.4,10.5,30.06,NE,41,0.0,0.0,43,0.00,-RA,OVC,0.00,WeatherDisplay:10.37,2013-01-16 03:33:00,
2013-01-15 20:38:00,30.4,10.5,30.06,NE,41,2.3,2.3,43,0.00,-RA,OVC,0.00,WeatherDisplay:10.37,2013-01-16 03:38:00,
2013-01-15 20:43:00,30.4,10.5,30.06,NE,41,3.0,3.0,43,0.00,-RA,OVC,0.00,WeatherDisplay:10.37,2013-01-16 03:43:00,
2013-01-15 20:48:00,30.4,11.1,30.06,NE,41,2.3,2.3,44,0.00,-RA,OVC,0.00,WeatherDisplay:10.37,2013-01-16 03:48:00,
2013-01-15 20:53:00,30.3,11.0,30.06,NE,41,0.0,0.0,44,0.00,-RA,OVC,0.00,WeatherDisplay:10.37,2013-01-16 03:53:00,
2013-01-15 20:58:00,30.2,11.4,30.06,NE,41,3.5,3.5,45,0.00,-RA,OVC,0.00,WeatherDisplay:10.37,2013-01-16 03:58:00,
2013-01-15 21:03:00,30.1,11.3,30.06,NE,41,0.0,0.0,45,0.00,-RA,OVC,0.00,WeatherDisplay:10.37,2013-01-16 04:03:00,
2013-01-15 21:08:00,30.1,11.3,30.06,NE,41,0.0,0.0,45,0.00,-RA,OVC,0.00,WeatherDisplay:10.37,2013-01-16 04:08:00,
2013-01-15 21:13:00,29.9,11.6,30.06,NE,41,0.0,0.0,46,0.00,-RA,OVC,0.00,WeatherDisplay:10.37,2013-01-16 04:13:00,
2013-01-15 21:18:00,29.9,12.1,30.06,NE,41,0.0,0.0,47,0.00,-RA,OVC,0.00,WeatherDisplay:10.37,2013-01-16 04:18:00,
2013-01-15 21:23:00,29.8,12.0,30.05,NE,41,0.0,0.0,47,0.00,-RA,OVC,0.00,WeatherDisplay:10.37,2013-01-16 04:23:00,
2013-01-15 21:28:00,29.7,11.9,30.05,NE,41,0.0,0.0,47,0.00,-RA,OVC,0.00,WeatherDisplay:10.37,2013-01-16 04:28:00,
2013-01-15 21:33:00,29.7,12.4,30.05,NE,41,0.0,0.0,48,0.00,-RA,OVC,0.00,WeatherDisplay:10.37,2013-01-16 04:33:00,
2013-01-15 21:38:00,29.7,12.4,30.05,NE,41,1.1,1.1,48,0.00,-RA,OVC,0.00,WeatherDisplay:10.37,2013-01-16 04:38:00,
2013-01-15 21:43:00,29.6,12.8,30.06,NE,41,1.0,1.0,49,0.00,-RA,OVC,0.00,WeatherDisplay:10.37,2013-01-16 04:43:00,
2013-01-15 21:48:00,29.6,12.8,30.06,NE,41,3.5,3.5,49,0.00,-RA,OVC,0.00,WeatherDisplay:10.37,2013-01-16 04:48:00,
2013-01-15 21:53:00,29.6,12.8,30.06,NE,40,0.0,0.0,49,0.00,-RA,OVC,0.00,WeatherDisplay:10.37,2013-01-16 04:53:00,
2013-01-15 21:58:00,29.6,12.8,30.06,NE,40,0.0,0.3,49,0.00,-RA,OVC,0.00,WeatherDisplay:10.37,2013-01-16 04:58:00,
2013-01-15 22:02:00,29.6,12.8,30.06,ENE,70,0.0,0.0,49,0.00,-RA,OVC,0.00,WeatherDisplay:10.37,2013-01-16 05:02:00,
2013-01-15 22:04:00,29.5,12.7,30.06,ENE,70,1.1,1.1,49,0.00,-RA,OVC,0.00,WeatherDisplay:10.37,2013-01-16 05:04:00,
2013-01-15 22:05:00,29.6,12.8,30.06,ENE,76,3.5,3.5,49,0.00,-RA,OVC,0.00,WeatherDisplay:10.37,2013-01-16 05:05:00,
2013-01-15 22:10:00,29.6,12.8,30.06,East,82,3.5,3.5,49,0.00,-RA,OVC,0.00,WeatherDisplay:10.37,2013-01-16 05:10:00,
2013-01-15 22:15:00,29.6,13.2,30.06,East,82,0.0,0.0,50,0.00,-RA,OVC,0.00,WeatherDisplay:10.37,2013-01-16 05:15:00,
2013-01-15 22:20:00,29.6,12.8,30.06,East,82,0.0,0.0,49,0.00,-RA,OVC,0.00,WeatherDisplay:10.37,2013-01-16 05:20:00,
2013-01-15 22:25:00,29.6,13.2,30.06,East,82,0.0,0.0,50,0.00,-RA,OVC,0.00,WeatherDisplay:10.37,2013-01-16 05:25:00,
2013-01-15 22:30:00,29.6,13.2,30.06,East,82,0.0,0.0,50,0.00,-RA,OVC,0.00,WeatherDisplay:10.37,2013-01-16 05:30:00,
2013-01-15 22:35:00,29.7,13.3,30.08,East,82,0.0,0.0,50,0.00,-RA,OVC,0.00,WeatherDisplay:10.37,2013-01-16 05:35:00,
2013-01-15 22:40:00,29.7,13.3,30.08,WSW,245,5.0,5.0,50,0.00,-RA,OVC,0.00,WeatherDisplay:10.37,2013-01-16 05:40:00,
2013-01-15 22:45:00,29.8,12.9,30.08,SW,235,3.5,3.5,49,0.00,-RA,OVC,0.00,WeatherDisplay:10.37,2013-01-16 05:45:00,
2013-01-15 22:50:00,29.8,12.5,30.08,SW,235,3.5,3.5,48,0.00,-RA,OVC,0.00,WeatherDisplay:10.37,2013-01-16 05:50:00,
2013-01-15 22:55:00,29.8,12.5,30.08,SW,235,0.0,0.0,48,0.00,-RA,OVC,0.00,WeatherDisplay:10.37,2013-01-16 05:55:00,
2013-01-15 23:00:00,29.8,12.5,30.08,SW,235,0.0,0.0,48,0.00,-RA,OVC,0.00,WeatherDisplay:10.37,2013-01-16 06:00:00,
2013-01-15 23:05:00,29.8,12.9,30.09,SW,235,0.0,0.0,49,0.00,-RA,OVC,0.00,WeatherDisplay:10.37,2013-01-16 06:05:00,
2013-01-15 23:10:00,29.7,12.8,30.09,SW,235,0.0,0.0,49,0.00,-RA,OVC,0.00,WeatherDisplay:10.37,2013-01-16 06:10:00,
2013-01-15 23:15:00,29.7,12.8,30.09,SW,235,0.0,0.0,49,0.00,-RA,OVC,0.00,WeatherDisplay:10.37,2013-01-16 06:15:00,
2013-01-15 23:20:00,29.6,13.2,30.09,SW,235,0.0,0.0,50,0.00,-RA,OVC,0.00,WeatherDisplay:10.37,2013-01-16 06:20:00,
2013-01-15 23:25:00,29.5,13.1,30.08,SW,236,1.1,1.1,50,0.00,-RA,OVC,0.00,WeatherDisplay:10.37,2013-01-16 06:25:00,
2013-01-15 23:30:00,29.5,13.1,30.08,SW,236,0.0,0.0,50,0.00,-RA,OVC,0.00,WeatherDisplay:10.37,2013-01-16 06:30:00,
2013-01-15 23:35:00,29.4,13.0,30.08,SW,236,0.0,0.0,50,0.00,-RA,OVC,0.00,WeatherDisplay:10.37,2013-01-16 06:35:00,
2013-01-15 23:40:00,29.3,12.9,30.08,SW,236,0.0,0.0,50,0.00,-RA,OVC,0.00,WeatherDisplay:10.37,2013-01-16 06:40:00,
2013-01-15 23:45:00,29.2,13.3,30.08,SW,236,0.0,0.0,51,0.00,-RA,OVC,0.00,WeatherDisplay:10.37,2013-01-16 06:45:00,
2013-01-15 23:50:00,29.1,13.2,30.08,SW,236,1.1,1.1,51,0.00,-RA,OVC,0.00,WeatherDisplay:10.37,2013-01-16 06:50:00,
2013-01-15 23:55:00,28.9,13.0,30.08,SW,236,0.0,0.0,51,0.00,-RA,OVC,0.00,WeatherDisplay:10.37,2013-01-16 06:55:00,